www.pogodaiklimat.ru

Погода и климат >> Архив погоды >> Россия >> Калмыкия >> Комсомольский


ПОГОДА в Комсомольском

  • Прогноз погоды в Комсомольском
  • Монитор погоды в Комсомольском
  • Климат города

АРХИВ ПОГОДЫ в Комсомольском

Время (UTC), дата Ветер
(напр.,м/с)
 
Видим.   Явления Облачность Т
(С)
Тd
(С)
f
(%)
Тe
(С)
Тes
(С)
Комфортность P
(гПа)
Po
(гПа)
Тmin
(С)
Tmax
(С)
R
(мм)
R24
(мм)
S
(см)
03 15.10 З 2 4000 м дымка {ливн. осадки} 10/10 420 м
[Cb cap]
+10.2 +9.3 94 +9 +9 1014.9 1015.2 +9.9 10
06 15.10 З 4 10 км слабый ливневой дождь 10/10 360 м
[Cb cap]
+11.2 +9.8 91 +9 +9 1015.0 1015.4
09 15.10 З 4 20 км {ливн. осадки} 8/8 300 м
[Cb cap]
+13.7 +9.6 76 +12 +13 1014.1 1014.5
12 15.10 З 4
{11}
20 км {ливн. осадки} 9/9 300 м
[Cb cap]
+13.5 +7.1 65 +12 +12 1013.0 1013.4
15 15.10 З 4
{11}
20 км 4/4 600 м
[Sc Ac trans]
+11.1 +4.8 65 +9 +9 1013.2 1013.6 +15.4 0.4
18 15.10 З 3 20 км 10/10 540 м
[Sc]
+9.4 +4.9 73 +7 +7 1011.5 1011.8
21 15.10 ЮЗ 3 4000 м слабый ливневой дождь 10/10 330 м
[Cb cap]
+7.9 +6.8 93 +5 +5 1007.7 1008.1
00 16.10 ЮЗ 5-10
{11}
4000 м слабый ливневой дождь 10/10 360 м
[Cb cap]
+9.4 +8.6 95 +6 +6 1002.9 1003.3
03 16.10 З 5
{12}
20 км {ливн. осадки} 10/10 420 м
[Cb cap]
+10.9 +9.0 88 +8 +8 1003.1 1003.5 +7.8 8
06 16.10 З 4
{12}
10 км ливневой дождь 10/10 360 м
[Cb cap]
+8.4 +6.6 88 +5 +5 1005.6 1006.0 +7.5
09 16.10 СЗ 6-13
{16}
20 км в посл. час ливневой дождь 10/10 300 м
[Cb cap Ac und]
+9.1 +6.2 82 +5 +5 1006.4 1006.8
12 16.10 СЗ 5-11
{16}
10 км ливневой дождь 10/10 360 м
[Cb cap]
+7.8 +5.3 84 +4 +4 1009.3 1009.7
15 16.10 СЗ 5-11
{15}
10 км слабый ливневой дождь 10/10 360 м
[Cb cap]
+8.0 +5.4 84 +4 +4 1012.0 1012.4 +11.6 3
18 16.10 З 4
{12}
10 км слабый ливневой дождь 10/10 330 м
[Cb cap]
+8.1 +5.4 83 +5 +5 1013.5 1013.9
21 16.10 З 5 10 км слабый ливневой дождь 10/10 300 м
[Cb cap]
+7.0 +4.7 85 +3 +3 1014.0 1014.4
00 17.10 З 5-11
{14}
20 км {ливн. осадки} 10/10 420 м
[Cb cap]
+7.5 +3.8 77 +4 +4 1014.4 1014.8
03 17.10 З 6-11
{13}
20 км 10/10 420 м
[Cb cap]
+7.0 +1.9 70 +3 +3 1015.1 1015.5 +6.9 0.8
06 17.10 З 6-13
{14}
20 км 9/9 300 м
[Sc Ac trans]
+8.4 +2.8 68 +5 +5 1016.5 1016.9
09 17.10 З 7-13
{15}
20 км 9/8 300 м
[Sc Ac trans]
+9.8 +1.2 55 +6 +7 1017.2 1017.6
12 17.10 СЗ 6-11
{13}
н/о н/о +11.5 +3.0 56 +9 +9 1016.4 1016.8
15 17.10 З 2
{11}
20 км 10/10 600 м
[Sc Ac trans]
+10.4 +5.7 73 +9 +9 1016.8 1017.2 +11.5
18 17.10 З 2 20 км 10/10 570 м
[Sc]
+10.2 +7.0 81 +9 +9 1017.1 1017.5
21 17.10 З 3 10 км слабый ливневой дождь {снег} 10/10 360 м
[Cb cap]
+10.7 +9.1 90 +9 +9 1017.3 1017.7
00 18.10 СЗ 2 4000 м дымка {ливн. осадки} 10/10 500 м
[Cb cap]
+10.6 +9.5 93 +9 +9 1018.4 1018.8
03 18.10 З 3 4000 м дымка 10/10 540 м
[Sc]
+9.8 +8.5 92 +7 +7 1020.8 1021.2 +9.4 1
06 18.10 З 3 20 км 10/10 540 м
[Sc]
+11.0 +8.8 86 +9 +9 1023.3 1023.7
09 18.10 СЗ 3 20 км 8/0
[Ac trans]
+14.1 +7.7 65 +13 +16 1023.5 1023.9
12 18.10 СЗ 3 20 км 6/0
[Ac trans]
+15.0 +6.0 55 +14 +16 1023.2 1023.6
15 18.10 ЮЗ 1 20 км 10/0
[Ac und]
+9.8 +7.0 83 +9 +9 1023.9 1024.3 +15.2
18 18.10 Ю 1 4000 м дымка 3/0
[Ci fib]
+7.6 +6.4 92 +7 +7 1023.8 1024.2
21 18.10 ЮЗ 1 4000 м дымка ясно +6.3 +5.5 95 +5 +5 1023.5 1023.9
00 19.10 Ю 3 4000 м дымка ясно +6.1 +5.2 94 +3 +3 1022.8 1023.2
03 19.10 ЮЗ 2 4000 м дымка ясно +6.2 +5.6 96 +4 +4 1022.7 1023.1 +5.9
06 19.10 ЮЗ 1 4000 м в посл. час туман 6/0
[Ac trans]
+9.9 +9.4 97 +9 +11 1023.0 1023.4
09 19.10 ЮЗ 2 20 км 9/0
[Ci]
+16.8 +12.2 74 +17 +22 1021.9 1022.3
12 19.10 З 2 20 км 8/8 1000 м
[Cu hum Ac trans]
+18.0 +11.0 64 +19 +19 1020.4 1020.8
15 19.10 ЮЗ 1 20 км 10/10 630 м
[Sc]
+13.4 +10.8 84 +14 +14 1020.2 1020.6 +18.3
18 19.10 ЮЗ 1 20 км 9/9 600 м
[Sc Ac trans]
+12.5 +10.6 88 +12 +12 1019.8 1020.2
21 19.10 ЮЗ 1 20 км 9/9 600 м
[Sc Ac trans]
+12.6 +10.6 88 +13 +13 1019.0 1019.4
00 20.10 ЮЗ 1 4000 м дымка 10/10 600 м
[Sc]
+11.7 +10.4 92 +11 +11 1018.3 1018.7
03 20.10 ЮЗ 1 20 км 8/8 600 м
[Sc Ac trans]
+11.6 +10.1 91 +11 +11 1018.0 1018.4 +11.2
06 20.10 З 2 20 км 8/8 600 м
[Sc Ac und]
+13.6 +10.9 84 +13 +13 1018.6 1019.0 +10.7
09 20.10 СЗ 3 20 км 10/10 600 м
[Sc Ac und]
+17.6 +10.3 62 +18 +18 1017.9 1018.3
12 20.10 СЗ 3 20 км 4/4 1000 м
[Cu med, cong Ac trans Ci fib]
+18.9 +9.9 56 +20 +21 1017.1 1017.5
15 20.10 СЗ 1 20 км 3/0
[Ac trans]
+14.3 +9.8 74 +15 +15 1017.9 1018.2 +19.3
18 20.10 С 1 4000 м дымка ясно +10.4 +9.1 92 +10 +10 1018.7 1019.1
21 20.10 штиль 0 4000 м дымка ясно +9.3 +8.5 95 +8 +8 1018.0 1018.4
00 21.10 З 1 4000 м в посл. час туман 10/10 400 м
[St]
+10.3 +9.7 96 +10 +10 1017.7 1018.1
03 21.10 З 1 4000 м дымка 10/10 540 м
[Sc]
+10.9 +10.1 95 +10 +10 1017.3 1017.7 +8.2
06 21.10 штиль 0 4000 м дымка 10/10 540 м
[Sc]
+12.0 +10.8 92 +11 +11 1017.3 1017.7
09 21.10 З 1 20 км 10/10 540 м
[Sc]
+14.9 +11.5 80 +15 +15 1016.7 1017.1
12 21.10 З 1 20 км 10/10 540 м
[Sc]
+15.7 +10.1 69 +16 +16 1015.2 1015.6
15 21.10 штиль 0 20 км 10/10 540 м
[Sc]
+14.8 +10.8 77 +15 +15 1015.1 1015.5 +15.8
18 21.10 штиль 0 20 км 10/10 540 м
[Sc]
+13.8 +11.0 83 +13 +13 1014.8 1015.2
21 21.10 штиль 0 20 км 10/10 540 м
[Sc]
+13.1 +10.7 85 +13 +13 1013.9 1014.3
00 22.10 З 1 20 км 10/10 540 м
[Sc]
+11.6 +9.6 88 +11 +11 1012.9 1013.3

 

Местоположение метеостанции Комсомольский (Калмыкия, Россия): широта 45.35 долгота 46.03 высота над уровнем моря -2 м.

В архиве по умолчанию представлена погода в Комсомольском за последнюю неделю. Архивные данные за месяц целиком и за предыдущие месяцы, начиная с января 2011 года, Вы можете получить, выбрав интересующий диапазон дат из раскрывающегося списка и нажав кнопку "Ввод!".

Внимание! Время в таблицах - всемирное. Для получения местного времени необходимо прибавить поправку, которая в Комсомольском равна 3 ч.

Смотрите также архив погоды в соседних городах и на ближайших метеорологических станциях:

Погода в Артезиане (Калмыкия, Россия) (70 км)
Погода в Южно-Сухокумске (Дагестан, Россия) (83 км)
Погода в Лагани (Калмыкия, Россия) (103 км)
Погода в Лимане (Астраханская область, Россия) (105 км)
Погода в Яшкуле (Калмыкия, Россия) (106 км)
Погода в Кочубее (Дагестан, Россия) (113 км)
Погода в Утте (Калмыкия, Россия) (113 км)
Погода в Ики-Буруле (Калмыкия, Россия) (120 км)
Погода в Терекли-Мектебе (Дагестан, Россия) (136 км)
Погода в Арзгире (Ставропольский край, Россия) (143 км)

Пояснения к столбцам:

Ветер - указаны скорость ветра в м/с - средняя за 10 мин, порывы в срок и между сроками (в фигурных скобках) и направление, откуда дует ветер: С - северный, СВ - северо-восточный, В - восточный, ЮВ - юго-восточный, Ю - южный, ЮЗ - юго-западный, З - западный, СЗ - северо-западный.
Видимость - горизонтальная дальность видимости в метрах или километрах. При видимости от 1 до 10 км при отсутствии осадков обычно наблюдается дымка, при ухудшении видимости до 1 км и менее - туман. В сухую погоду видимость может ухудшаться дымом, пылью или мглою.
Явления - указаны атмосферные явления, наблюдавшиеся в срок или в последний час перед сроком; фигурными скобками обозначены явления, наблюдавшиеся между сроками (за 1-3 часа до срока); квадратными скобками обозначены град или гололедные отложения с указанием их диаметра в мм.
Облачность - указаны через наклонную черту общая и нижняя облачность в баллах и высота нижней границы облаков в метрах; квадратными скобками обозначены формы облаков: Ci - перистые, Cs - перисто-слоистые, Cc - перисто-кучевые, Ac - высококучевые, As - высокослоистые, Sc - слоисто-кучевые, Ns - слоисто-дождевые, Cu - кучевые, Cb - кучево-дождевые. Подробнее классификацию облаков см. в Атласе облаков (PDF).
T - Температура воздуха - температура, измеренная на высоте 2 м над землей.
Td - Температура точки росы - температура, при понижении до которой содержащийся в воздухе водяной пар достигнет насыщения.
f - Относительная влажность воздуха - влажноcть воздуха, измеренная на высоте 2 м над землей.
Te - Эффективная температура - температура, которую ощущает одетый по сезону человек в тени. Характеристика душности погоды. При расчете учитывается влияние влажности воздуха и скорости ветра на теплоощущения человека.
Tes - Эффективная температура на солнце - температура, которую ощущает человек, с поправкой на солнечный нагрев. Характеристика знойности погоды. Зависит от высоты солнца над горизонтом, облачности и скорости ветра. Ночью, в пасмурную погоду, а также при ветре 12 м/с и более поправка равна нулю.
P - Атмосферное давление - приведенное к уровню моря атмосферное давление.
Po - Атмосферное давление - измеренное на уровне метеостанции атмосферное давление.
Tmin - Минимальная температура - минимум температуры воздуха на высоте 2 м над землей.
Tmax - Максимальная температура - максимум температуры воздуха на высоте 2 м над землей.
R - Количество осадков - Количество выпавших осадков за период времени, мм. При наведении курсора мыши на число - период времени, за который выпало указанное количество осадков.
R24 - Количество осадков - Количество выпавших осадков за 24 часа, мм.
S - Снежный покров - Высота снежного покрова, см. При наведении курсора мыши на число - состояние снежного покрова и степень покрытия местности в баллах.